CZ-6A DEB

Satellite information

Favourite Embed

Satellite Type and Status

DEBRISIN ORBIT

Key statistics

Satellite CZ-6A DEB at a glance.

Uptime

397

Days in orbit

Revolutions

≈ 14.3

Per day

Orbit

LEO

Low Earth Orbit

Inclination

89.4

Latest

Satellite identification and parameters

Extended collection of information and parameters for CZ-6A DEB.

Object identification

Identified? True

Debris? True

Object name: CZ-6A DEB

International designator: 2024-140JT

Object number (NORAD): 60864

Object ID (CCSDS): 60864

Country: PEOPLES REPUBLIC OF CHINA (PRC)

Current information (Y/N): Y

RCS size: SMALL

Orbital parameters

Period: 100.434 minutes

Inclination: 89.4289 deg

SMA: 7157.292 km

Apoapsis: 790.682 km

Periapsis: 767.632 km

RAAN: 325.6204 deg

Eccentricy: 0.00161027

Argument of periapsis: 208.5493 deg

Mean anomaly: 151.4824 deg

Mean motion: 14.33770595 rev/day

Mean motion (dot): 0.00002565 rev/day2

B* drag term: 0.00091749988 1/REarth

Two-line elements (TLE)

Creation date: Sept. 7, 2025, 3:09 a.m.

Reference frame: TEME

Reference center: EARTH

Epoch: Sept. 6, 2025, 4:15 p.m. UTC

TLE line 0: 0 CZ-6A DEB

TLE line 1: 1 60864U 24140JT 25249.67712176 .00002565 00000-0 91750-3 0 9997

TLE line 2: 2 60864 89.4289 325.6204 0016103 208.5493 151.4824 14.33770595 54840

Live tracking on map

Real-time ground track for satellite CZ-6A DEB.

In-orbit conjunctions

A list of the most updated potential collisions computed for object CZ-6A DEB.

Target Orbit TCA Probability of collision Miss distance Type
DMSP 5D-2 F13 DEB SSO 2025-05-12 07:54:03 0.0001370679 210.0 (m) DEBRIS
SHIYAN 20A DEB LEO 2025-04-14 14:25:24 0.0001221344 294.0 (m) DEBRIS
COSMOS 2251 DEB LEO 2025-02-19 17:27:01 0.0001397791 898.0 (m) DEBRIS
CZ-6A DEB LEO 2025-01-10 07:09:25 0.0002054281 929.0 (m) DEBRIS
FENGYUN 1C DEB SSO 2024-11-25 22:57:00 0.0001454018 697.0 (m) DEBRIS

Associated space launch

18 Low Earth Orbit communication satellites with Ku, Q and V band payloads for the G60 constellation operated by Shanghai Spacecom Satellite Technology (SSST) with funding backed by the Shanghai local government. Initial constellation will consist of 1296 satellites by 2027 with long term plans to expand it to 12000 satellites.

CZ-6A DEB was lifted into orbit during the mission ‘Long March 6A | G60 Polar Group 01’, on board a Long March 6A space rocket.

The launch took place on Aug. 6, 2024, 6:42 a.m. from Launch Complex 9A.

For more information about the launch, click the button.

Launch to space Long March 6A | G60 Polar Group 01
Long March 6A | G60 Polar Group 01

Agency: N/A

Status: Launch Successful

Launch date: Aug. 6, 2024, 6:42 a.m. UTC

Rocket: Long March 6A

Launch pad: Launch Complex 9A

Location: Taiyuan Satellite Launch Center, People's Republic of China

...

Latest news about this satellite

News about space launch
Brightness of first Chinese broadband constellation satellites alarms astronomers

The first satellites of a Chinese broadband constellation are significantly brighter than those of Western systems, posing a new challenge for astronomers.

News about space launch
Chinese rocket stage breaks up into cloud of more than 700 pieces of space debris

HELSINKI — A Chinese Long March 6A rocket’s upper stage has fragmented into a cloud of over 700 pieces of space debris, adding to concerns about long-term orbital safety. China […]

News about space launch
China's Thousand Sails Megaconstellation Kicks Off with Dangerous Debris Field

China's Thousand Sails Megaconstellation Kicks Off with Dangerous Debris Field


Newsletter sign-up

Weekly statistics, charts and insights to help you stay on top of the space industry.